Regional Weather Roundup
Issued by NWS

Home | Current Version | Previous Version | Text Only | Print | Product List | Glossary Off
Versions: 1 2 3 4 5 6 7 8 9 10 11 12 13 14 15 16 17 18 19 20 21 22 23 24 25 26 27 28 29 30 31 32 33 34 35 36 37 38 39 40 41 42 43 44 45 46 47 48 49 50

000
ASUS45 KSLC 230910
RWRUT

UTAH REGIONAL WEATHER ROUNDUP
NATIONAL WEATHER SERVICE SALT LAKE CITY UT
300 AM MDT WED JUL 23 2014

UTZ001>011-023>025-231000-

NORTHERN UTAH

CITY           SKY/WX    TMP DP  RH WIND       PRES   REMARKS
HILL AFB       CLEAR     75  33  21 E17       30.14S
LOGAN          NOT AVBL
OGDEN          CLEAR     74  33  22 SE8       30.11R
PROVO AIRPORT  CLEAR     66  41  39 S3        30.16S
SALT LAKE CITY PTCLDY    75  39  27 SE9       30.09S
VERNAL         CLEAR     64  34  32 W6        30.22R
WENDOVER       CLEAR     79  27  14 N3        30.08S
HEBER CITY     CLEAR     52  41  66 CALM      30.26S
WEST JORDAN    CLEAR     75  41  29 CALM      30.13F

$$

UTZ012>022-026-027-231000-

SOUTHERN UTAH

CITY           SKY/WX    TMP DP  RH WIND       PRES   REMARKS
BRYCE CANYON   PTCLDY    53  34  48 W7        30.45F
CEDAR CITY     CLEAR     71  33  24 SE7       30.26F
MILFORD        CLEAR     73  29  19 SW12      30.20S
MOAB/CYNLANDS  CLEAR     75  22  13 SE10      30.13R
PRICE          CLEAR     69  15  12 CALM      30.26S
ST GEORGE      SUNNY     81  28  15 E7        30.05F
KANAB            N/A     63  32  31 N3        30.26R

$$

REGIONAL REPORTS     COLORADO/ARIZONA

CITY           SKY/WX    TMP DP  RH WIND       PRES   REMARKS
CRAIG, CO      CLEAR     44  36  73 CALM      30.33F
GRAND JUNCTION PTCLDY    78  27  15 E15       30.20R
RIFLE          CLEAR     62  29  28 SE5       30.29R
MONTROSE       CLEAR     73  40  30 S3        30.33R
CORTEZ         CLEAR     78  43  28 NW7G18    30.37R
PAGE, AZ       MOCLDY    86  34  15 CALM      30.14R
GRAND CANYON   MOCLDY    57  41  55 CALM      30.38S HAZE
KINGMAN        CLEAR     77  31  18 CALM      30.09F
FLAGSTAFF      PTCLDY    56  40  55 CALM      30.42S

$$

REGIONAL REPORTS    NEVADA/IDAHO/WYOMING

CITY           SKY/WX    TMP DP  RH WIND       PRES   REMARKS
LAS VEGAS, NV  CLEAR     89  28  11 S10       29.92S
ELY            CLEAR     64  17  16 S12       30.29S
ELKO           CLEAR     65  36  34 W6        30.15R
POCATELLO, ID  CLEAR     57  43  59 CALM      30.07S
BURLEY         CLEAR     60  50  69 CALM      30.05R
EVANSTON, WY   CLEAR     65  32  29 S6        30.36F
ROCK SPRINGS   CLEAR     68  22  17 SE10      30.35S

$$


USA.gov is the U.S. government's official web portal to all federal, state and local government web resources and services.